Zurück zum Katalog

SL-6 R/B(2)

AktivHEO
NORAD 16533·ROCKET BODY·🇷🇺 Russia

Gestartet Feb 1, 1986 von Plesetsk Cosmodrome

Loading…

Nächste Überflüge (nächste 24 Stunden)

TLE

AktuellSource: Space-Track

Epoche: Sep 13, 2026, 07:54 UTC

1 16533U 86011F   26256.32964429 -.00000390  00000-0  00000-0 0  9997
2 16533  71.0546 119.0723 5227443 359.6447 188.2787  2.04056213285853

Verfolge SL-6 R/B(2) in Echtzeit mit AllMySat

Download on the App Store